Stündliche Wetter Kysucke Nove Mesto

Heute, 26 Januar, Dienstag

Zeit Temperatur Niederschläge Wind Luftdruck Luftfeuchtigkeit
00:00 -1°C° 0.1 mm 1 m/S 721 mmHg 92%
01:00 -1°C° 0.1 mm 1 m/S 722 mmHg 92%
02:00 -1°C° 0.1 mm 1 m/S 722 mmHg 93%
03:00 -1°C° 0.1 mm 1 m/S 722 mmHg 93%
04:00 -1°C° 0.1 mm 1 m/S 723 mmHg 93%
05:00 -1°C° 0 mm 1 m/S 723 mmHg 93%
06:00 -1°C° 0 mm 1 m/S 723 mmHg 94%
07:00 -3°C° 0 mm 0 m/S 723 mmHg 95%
08:00 -1°C° 0.1 mm 1 m/S 724 mmHg 91%
09:00 -1°C° 0.1 mm 1 m/S 724 mmHg 87%
10:00 0°C° 0.1 mm 1 m/S 725 mmHg 83%
11:00 0°C° 0.1 mm 1 m/S 725 mmHg 81%
12:00 +1°C° 0.1 mm 1 m/S 725 mmHg 80%
13:00 -1°C° 0.1 mm 2 m/S 725 mmHg 79%
14:00 -2°C° 0.1 mm 2 m/S 725 mmHg 80%
15:00 0°C° 0.1 mm 1 m/S 725 mmHg 81%
16:00 0°C° 0.1 mm 1 m/S 725 mmHg 82%
17:00 -1°C° 0 mm 1 m/S 725 mmHg 84%
18:00 -1°C° 0 mm 1 m/S 725 mmHg 86%
19:00 -2°C° 0 mm 1 m/S 725 mmHg 88%
20:00 -3°C° 0 mm 0 m/S 726 mmHg 89%
21:00 -3°C° 0 mm 0 m/S 726 mmHg 90%
22:00 -3°C° 0 mm 0 m/S 726 mmHg 91%
23:00 -3°C° 0 mm 0 m/S 726 mmHg 92%

Morgen, 27 Januar, Mittwoch

Zeit Temperatur Niederschläge Wind Luftdruck Luftfeuchtigkeit
00:00 -3°C° 0 mm 0 m/S 726 mmHg 93%
01:00 -2°C° 0 mm 1 m/S 727 mmHg 95%
02:00 -2°C° 0.1 mm 1 m/S 727 mmHg 95%
03:00 -2°C° 0.1 mm 1 m/S 726 mmHg 95%
04:00 -2°C° 0.1 mm 1 m/S 726 mmHg 95%
05:00 -2°C° 0.2 mm 1 m/S 727 mmHg 95%
06:00 -2°C° 0.2 mm 1 m/S 727 mmHg 95%
07:00 -2°C° 0.2 mm 1 m/S 727 mmHg 95%
08:00 -1°C° 0.2 mm 1 m/S 727 mmHg 92%
09:00 -1°C° 0.2 mm 1 m/S 727 mmHg 89%
10:00 -1°C° 0.2 mm 1 m/S 727 mmHg 87%
11:00 -2°C° 0.1 mm 2 m/S 727 mmHg 83%
12:00 -2°C° 0.1 mm 2 m/S 727 mmHg 80%
13:00 -1°C° 0.1 mm 2 m/S 727 mmHg 77%
14:00 -2°C° 0.1 mm 2 m/S 727 mmHg 80%
15:00 0°C° 0.1 mm 1 m/S 726 mmHg 82%
16:00 0°C° 0.1 mm 1 m/S 726 mmHg 85%
17:00 -1°C° 0 mm 1 m/S 726 mmHg 88%
18:00 -2°C° 0 mm 1 m/S 726 mmHg 90%
19:00 -2°C° 0 mm 1 m/S 727 mmHg 93%
20:00 -3°C° 0 mm 0 m/S 726 mmHg 94%
21:00 -4°C° 0 mm 0 m/S 726 mmHg 95%
22:00 -4°C° 0 mm 0 m/S 726 mmHg 95%
23:00 -4°C° 0 mm 0 m/S 726 mmHg 95%

übermorgen, 28 Januar, Donnerstag

Zeit Temperatur Niederschläge Wind Luftdruck Luftfeuchtigkeit
00:00 -4°C° 0 mm 0 m/S 726 mmHg 95%
01:00 -5°C° 0 mm 0 m/S 726 mmHg 94%
02:00 -5°C° 0 mm 0 m/S 726 mmHg 95%
03:00 -4°C° 0 mm 1 m/S 725 mmHg 95%
04:00 -4°C° 0 mm 1 m/S 725 mmHg 95%
05:00 -4°C° 0 mm 1 m/S 724 mmHg 95%
06:00 -3°C° 0 mm 1 m/S 724 mmHg 95%
07:00 -3°C° 0 mm 1 m/S 724 mmHg 95%
08:00 -2°C° 0.2 mm 1 m/S 724 mmHg 93%
09:00 -1°C° 0.2 mm 1 m/S 723 mmHg 92%
10:00 0°C° 0.2 mm 1 m/S 723 mmHg 91%
11:00 0°C° 0.1 mm 1 m/S 723 mmHg 90%
12:00 +1°C° 0.1 mm 1 m/S 722 mmHg 89%
13:00 +2°C° 0.1 mm 1 m/S 722 mmHg 89%
14:00 +2°C° 0.1 mm 1 m/S 721 mmHg 91%
15:00 +1°C° 0.1 mm 1 m/S 721 mmHg 94%
16:00 +1°C° 0.1 mm 1 m/S 720 mmHg 96%
17:00 -1°C° 0.2 mm 2 m/S 720 mmHg 97%
18:00 -1°C° 0.2 mm 2 m/S 720 mmHg 97%
19:00 -1°C° 0.2 mm 2 m/S 719 mmHg 97%
20:00 +1°C° 0.6 mm 1 m/S 719 mmHg 98%
21:00 +1°C° 0.6 mm 1 m/S 719 mmHg 98%
22:00 +1°C° 0.6 mm 1 m/S 718 mmHg 98%
23:00 +2°C° 0.7 mm 1 m/S 718 mmHg 98%

29 Januar, Freitag

Zeit Temperatur Niederschläge Wind Luftdruck Luftfeuchtigkeit
00:00 +2°C° 0.7 mm 1 m/S 718 mmHg 98%
01:00 +2°C° 0.7 mm 1 m/S 717 mmHg 98%
02:00 +2°C° 0.6 mm 1 m/S 717 mmHg 98%
03:00 +1°C° 0.6 mm 1 m/S 717 mmHg 98%
04:00 +1°C° 0.6 mm 1 m/S 717 mmHg 97%
05:00 0°C° 0.2 mm 1 m/S 717 mmHg 96%
06:00 0°C° 0.2 mm 1 m/S 717 mmHg 95%
07:00 -1°C° 0.2 mm 1 m/S 717 mmHg 94%
08:00 -1°C° 0 mm 0 m/S 717 mmHg 85%
09:00 -1°C° 0 mm 0 m/S 717 mmHg 77%
10:00 0°C° 0 mm 0 m/S 717 mmHg 68%
11:00 +1°C° 0.1 mm 0 m/S 717 mmHg 67%
12:00 +1°C° 0.1 mm 0 m/S 717 mmHg 65%
13:00 +1°C° 0.1 mm 0 m/S 716 mmHg 63%
14:00 +1°C° 0.4 mm 1 m/S 716 mmHg 73%
15:00 +1°C° 0.4 mm 1 m/S 716 mmHg 83%
16:00 0°C° 0.4 mm 1 m/S 716 mmHg 92%
17:00 -1°C° 0.1 mm 1 m/S 716 mmHg 93%
18:00 -1°C° 0.1 mm 1 m/S 717 mmHg 93%
19:00 -3°C° 0.1 mm 0 m/S 717 mmHg 94%
20:00 -3°C° 0 mm 0 m/S 717 mmHg 92%
21:00 -2°C° 0 mm 1 m/S 718 mmHg 91%
22:00 -2°C° 0 mm 1 m/S 718 mmHg 90%
23:00 -3°C° 0 mm 1 m/S 718 mmHg 90%

30 Januar, Samstag

Zeit Temperatur Niederschläge Wind Luftdruck Luftfeuchtigkeit
00:00 -3°C° 0 mm 1 m/S 718 mmHg 89%
01:00 -3°C° 0 mm 1 m/S 718 mmHg 89%
02:00 -3°C° 0 mm 1 m/S 718 mmHg 89%
03:00 -3°C° 0 mm 1 m/S 718 mmHg 89%
04:00 -3°C° 0 mm 1 m/S 718 mmHg 89%
05:00 -3°C° 0.1 mm 1 m/S 718 mmHg 91%
06:00 -3°C° 0.1 mm 1 m/S 719 mmHg 92%
07:00 -3°C° 0.1 mm 1 m/S 719 mmHg 94%
08:00 -3°C° 0 mm 1 m/S 719 mmHg 90%
09:00 -2°C° 0 mm 1 m/S 720 mmHg 86%
10:00 -3°C° 0 mm 2 m/S 720 mmHg 82%
11:00 -1°C° 0 mm 1 m/S 720 mmHg 79%
12:00 -1°C° 0 mm 1 m/S 721 mmHg 77%
13:00 0°C° 0 mm 1 m/S 721 mmHg 74%
14:00 -1°C° 0 mm 1 m/S 721 mmHg 77%
15:00 -1°C° 0 mm 1 m/S 721 mmHg 80%
16:00 -2°C° 0 mm 1 m/S 721 mmHg 83%
17:00 -3°C° 0 mm 1 m/S 721 mmHg 87%
18:00 -4°C° 0 mm 1 m/S 721 mmHg 90%
19:00 -6°C° 0 mm 1 m/S 721 mmHg 93%
20:00 -6°C° 0 mm 1 m/S 722 mmHg 94%
21:00 -6°C° 0 mm 1 m/S 722 mmHg 94%
22:00 -6°C° 0 mm 1 m/S 722 mmHg 95%
23:00 -6°C° 0 mm 1 m/S 723 mmHg 95%

31 Januar, Sonntag

Zeit Temperatur Niederschläge Wind Luftdruck Luftfeuchtigkeit
00:00 -7°C° 0 mm 1 m/S 723 mmHg 96%
01:00 -7°C° 0 mm 1 m/S 723 mmHg 96%
02:00 -7°C° 0 mm 1 m/S 723 mmHg 96%
03:00 -7°C° 0 mm 1 m/S 723 mmHg 96%
04:00 -7°C° 0 mm 1 m/S 723 mmHg 96%
05:00 -7°C° 0 mm 1 m/S 723 mmHg 96%
06:00 -7°C° 0 mm 1 m/S 723 mmHg 96%
07:00 -7°C° 0 mm 1 m/S 724 mmHg 95%
08:00 -6°C° 0 mm 1 m/S 724 mmHg 92%
09:00 -4°C° 0 mm 1 m/S 724 mmHg 89%
10:00 -3°C° 0 mm 1 m/S 724 mmHg 86%
11:00 -2°C° 0 mm 1 m/S 724 mmHg 83%
12:00 -1°C° 0 mm 1 m/S 724 mmHg 79%
13:00 -2°C° 0 mm 2 m/S 723 mmHg 76%
14:00 -1°C° 0 mm 1 m/S 723 mmHg 79%
15:00 -1°C° 0 mm 1 m/S 722 mmHg 82%
16:00 -2°C° 0 mm 1 m/S 722 mmHg 86%
17:00 -3°C° 0 mm 1 m/S 721 mmHg 87%
18:00 -3°C° 0 mm 1 m/S 721 mmHg 88%
19:00 -4°C° 0 mm 1 m/S 721 mmHg 89%
20:00 -4°C° 0 mm 1 m/S 721 mmHg 87%
21:00 -4°C° 0 mm 1 m/S 720 mmHg 86%
22:00 -3°C° 0 mm 1 m/S 720 mmHg 85%
23:00 -5°C° 0 mm 2 m/S 720 mmHg 87%
Mehr zeigen

Wir brauchen deine Erlaubnis

Meteoprog und unser Service Anbieter werden persönliche Daten aufbewahren, so wie Cookies, Geräte Bezeichnung oder ähnliche Technologien von deinem Gerät und Prozess, so wie Persönliche Daten Inhalte und Werbungen, genauso wie social Media und den Verkehr zu analysieren.

  • Aufbewahrung und/oder Zugang zu deiner Geräte Informationen.

    Cookies, Geräte Bezeichnung oder andere Informationen, können aufbewahrt oder Zugang zu deinem Gerät erhalten, für den Grund, der oben angegeben wird.

  • Personalisierte Werbung und Inhalte, Messungen, Einblick in das Publikum und Produkt Entwicklung.

    Werbungen und Inhalte können personalisiert werden, basierend auf ein Profil. Mehr Daten können besser personalisierte Werbungen und Inhalte hinzufügen. Werbung und Inhalte können gezeigt und gemessen werden. Einblicke über das Publikum, welche die Werbung gesehen haben und den Inhalt, können abgeleitet werden. So wie Daten können genutzt werden, um es zu verbessern oder die Benutzer Erfahrung zu verbessern das System und die Software.

Wenn du “Ich stimme zu” klickst, erlaubst du uns, die Cookies zu benutzen die Geräte Bezeichnung, den Web oder ähnliche Technologien zu benutzen. Deine Settings, können in deinem Gerät bei deinem Browser geändert werden.

Für den bestimmten Zweck, berechtigten Interessen beruhen darauf, mehr als auf den Inhalt. Du kannst mehr darüber in unseren Privaten und Cookie Politik lesen.